Showing default

OPS 9346 (IDSCS 24), 3289

Orbit data source: Space-Track

OPS 9346 (IDSCS 24), 3289 is a payload satellite owned by SAMSO (US) in GEO that was launched on Thu, 13 Jun 1968 UTC via a TITAN IIIC launch vehicle from the Air Force Eastern Test Range (AFETR). Payload-class satellites include a variety of spacecraft equipped with specific instruments for various scientific and technological missions. These include communications satellites like Starlink; space stations such as the ISS; scientific satellites like the Hubble; Earth observation satellites from companies like Planet Labs, Umbra, and HawkEye 360; GPS; miniature CubeSats for education and research; and military/defense satellites.

Not visible in the next 10 days
Identifier
3289, 1968-050F
Orbit
GEO
Last TLE update
12 hours ago
Origin
Manufacturer
Philco-Ford
Mission
Non-operational Defense Communications
Bus & Motor
IDCSP, Unknown motor
Mass
45 kg wet, 45 kg dry
Launch date (UTC)
1968-06-13 (57 years ago)
Launch vehicle
TITAN IIIC
Launch site
Air Force Eastern Test Range (AFETR)
Object type
Payload
Rocket body
Debris
Shape & HBR
Poly, 0.9 m
Radar Cross Section
0.926 m², Medium (>0.1 m² and < 1m²)

Expand to show TLE details & history

TLE from 12 hours ago
0 OPS 9346 (IDSCS 24)
1 03289U 68050F   25132.82000978 -.00000106  00000-0  00000-0 0  9996
2 03289   6.2478  56.9242 0044505 127.7802  37.0178  1.07288275 46358
Epoch: 2025-05-12T19:40Z
Definitive object data (Epoch: 2025-05-12T19:40:48.845Z)
Latitude
1.58318°
Longitude
56.07903°
Altitude
33,783.446 km
Speed
3.156 km/s
True Right ascension
14h 48m 26s
True Declination
1° 34' 53"
Sunlit
Object was in daylight at TLE epoch
Visualization TLE readout
Latitude
-0.38339°
Longitude
-112.80236°
Altitude
34,046.155 km
Speed
3.136 km/s
Apparent Right ascension
03h 35m 56s
Apparent Declination
-5° 28' 31"
Sunlit
Object is in daylight
Visualization observer readout
Local Sidereal Time
16:00:56
Azimuth
10.922° NNE
Elevation
-55.102°
Doppler factor
1
Orbital elements
Apogee altitude
34,108.096 km
Perigee altitude
33,749.325 km
Semi-major axis
40,306.847 km
Eccentricity
0.0044505
Inclination
6.2478°
RAAN
56.9242°
Arg. of periapsis
127.7802°
True anomaly
37.32621°
Mean anomaly
37.0178°
Eccentric anomaly
37.17187°
Mean motion
0.26821 °/min
BSTAR
Unknown
Orbital period
1342.23 mins
Loading historical data...
3289 neighbors
Loading maneuver chart data...
Loading SW <> Apogee altitude chart data...
Loading historical data...
Loading historical data...
Loading historical data...
Loading historical data...
Loading historical data...
Loading historical data...
Loading historical data...

OPS 9346 (IDSCS 24) Visibility forecast

Observer location: undefined°, undefined°

OPS 9346 (IDSCS 24) is not visible in the next 10 days
Span
Click to sort rows by Start time (UTC) header in descending order
Start Az.
Max El. time (UTC)
Max El. Az.
Max El.
End time (UTC)
End Az.
|